Location: *
(13.2257°S, 48.7193°W)
Time: 18:43:19
(UTC+00:00)

SL-16 R/B - Pass Details

Date: 26 May 2026
Orbit: 984 x 1007 km, 99.8° (Epoch: 10 June)

Event Time Altitude Azimuth Distance (km) Brightness Sun altitude
Rises 07:16:35 0° 153° (SSE) 3,746 5.7 -31.4°
Reaches altitude 10° 07:19:16 10° 145° (SE) 2,791 5.1 -30.7°
Maximum altitude 07:25:02 38° 78° (ENE) 1,482 3.9 -29.4°
Drops below altitude 10° 07:30:44 10° 11° (NNE) 2,766 5.2 -28.1°
Sets 07:33:22 0° 4° (N) 3,708 5.8 -27.5°
